Regional Weather Roundup
Issued by NWS

Home | Current Version | Previous Version | Text Only | Print | Product List | Glossary Off
Versions: 1 2 3 4 5 6 7 8 9 10 11 12 13 14 15 16 17 18 19 20 21 22 23 24 25 26 27 28 29 30 31 32 33 34 35 36 37 38 39 40 41 42 43 44 45 46 47 48 49 50

000
ASUS45 KABQ 020401
RWRNM
NEW MEXICO REGIONAL WEATHER ROUNDUP
NATIONAL WEATHER SERVICE ALBUQUERQUE NM
1000 PM MDT SAT AUG 01 2015

NOTE: "FAIR" MEANS FEW OR NO CLOUDS BELOW 12,000 FEET AGL WITH NO
       SIGNIFICANT WEATHER OR OBSTRUCTIONS TO VISION.

      THIS PRODUCT IS RELEASED AS TWO VERSIONS.  ONE VERSION NEAR
      THE TOP OF THE HOUR CONTAINING PRELIMINARY DATA FROM ALBUQUERQUE
      AND OTHER STATIONS.  A FINAL VERSION WITH ADDITIONAL DATA IS
      ISSUED ABOUT 10 MINUTES AFTER THE HOUR.

NMZ501-503-504-510>518-020500-
NORTHWEST PLATEAU/NORTHCENTRAL MOUNTAINS

CITY           SKY/WX    TMP DP  RH WIND       PRES   REMARKS
FARMINGTON     CLEAR     71  57  61 CALM      30.17R
SANTA FE       CLOUDY    67  56  67 NE8       30.25R
TAOS           CLOUDY    59  48  67 E5        30.34R

$$
NMZ402-403-502-505>509-020500-
WESTCENTRAL MOUNTAINS/SOUTHWEST MOUNTAINS

CITY           SKY/WX    TMP DP  RH WIND       PRES   REMARKS
GALLUP         MOCLDY    66  57  72 E3        30.25R
SILVER CITY      N/A     72  55  56 NW3       30.19R

$$
NMZ407-409-411-412-020500-
SOUTHERN DESERTS

CITY           SKY/WX    TMP DP  RH WIND       PRES   REMARKS
DEMING         MOCLDY    78  56  46 NW9       30.07S
HOLLOMAN AFB   MOCLDY    84  55  36 SE16      30.05R
ALAMOGORDO     MOCLDY    82  54  36 S12       30.08R
T OR C         LGT RAIN  80  56  43 NW16      30.12R

$$
NMZ519>523-020500-
CENTRAL VALLEYS/CENTRAL HIGHLANDS

CITY           SKY/WX    TMP DP  RH WIND       PRES   REMARKS
ALBUQUERQUE    LGT RAIN  67  61  81 NW7       30.22R
DOUBLE EAGLE   CLOUDY    63  61  94 W17       30.27R
MORIARTY ARPT    N/A     66  56  71 W8        30.28R
CLINES CORNERS LGT RAIN  61  56  83 S9        30.31R
BELEN          MOCLDY    67  59  74 NW16      30.21R
SOCORRO        NOT AVBL

$$
NMZ524>526-539-540-020500-
SOUTHCENTRAL MOUNTAINS

CITY           SKY/WX    TMP DP  RH WIND       PRES   REMARKS
RUIDOSO          N/A    N/A N/A N/A MISG        N/A

$$
NMZ527>531-020500-
NORTHEAST HIGHLANDS/NORTHEAST PLAINS

CITY           SKY/WX    TMP DP  RH WIND       PRES   REMARKS
LAS VEGAS      MOCLDY    59  54  83 S6        30.30
RATON          CLOUDY    62  58  86 CALM      30.23R
CLAYTON        CLOUDY    73  59  61 CALM      30.14R

$$
NMZ532>537-020500-
EASTCENTRAL PLAINS

CITY           SKY/WX    TMP DP  RH WIND       PRES   REMARKS
TUCUMCARI      LGT RAIN  71  62  73 CALM      30.08R
CANNON AFB     CLOUDY    71  62  71 NW7       30.12R
CLOVIS AIRPORT CLOUDY    72  61  68 S6        30.12F

$$
NMZ028-029-538-020500-
SOUTHEAST PLAINS

CITY           SKY/WX    TMP DP  RH WIND       PRES   REMARKS
ROSWELL        MOCLDY    82  57  42 SE14      30.05R
ARTESIA        MOCLDY    84  57  39 SE12G18   30.06R
CARLSBAD       LGT RAIN  81  63  54 E14       30.03R


$$


USA.gov is the U.S. government's official web portal to all federal, state and local government web resources and services.